Time,TemperatureF,DewpointF,PressureIn,WindDirection,WindDirectionDegrees,WindSpeedMPH,WindSpeedGustMPH,Humidity,HourlyPrecipIn,Conditions,Clouds,dailyrainin,SoftwareType,DateUTC
2013-02-03 00:00:00,42.5,40.0,30.21,NW,309,0.0,-999.0,89,-99.99,,,0.00,weatherlink.com 1.10,2013-02-03 08:00:00,
2013-02-03 00:15:00,42.5,40.0,30.21,NW,309,1.0,-999.0,90,-99.99,,,0.00,weatherlink.com 1.10,2013-02-03 08:15:00,
2013-02-03 00:30:00,42.8,40.0,30.21,NW,309,2.0,-999.0,91,-99.99,,,0.00,weatherlink.com 1.10,2013-02-03 08:30:00,
2013-02-03 00:45:00,43.4,41.0,30.21,NW,309,1.0,-999.0,91,-99.99,,,0.00,weatherlink.com 1.10,2013-02-03 08:45:00,
2013-02-03 01:00:00,43.8,42.0,30.21,NW,309,1.0,-999.0,92,-99.99,,,0.00,weatherlink.com 1.10,2013-02-03 09:00:00,
2013-02-03 01:15:00,44.1,42.0,30.21,ESE,104,1.0,-999.0,92,-99.99,,,0.00,weatherlink.com 1.10,2013-02-03 09:15:00,
2013-02-03 01:30:00,44.8,43.0,30.21,ESE,104,4.0,-999.0,92,-99.99,,,0.00,weatherlink.com 1.10,2013-02-03 09:30:00,
2013-02-03 01:45:00,44.8,43.0,30.21,WNW,301,1.0,-999.0,92,-99.99,,,0.00,weatherlink.com 1.10,2013-02-03 09:45:00,
2013-02-03 02:00:00,44.7,43.0,30.22,WNW,301,1.0,-999.0,92,-99.99,,,0.00,weatherlink.com 1.10,2013-02-03 10:00:00,
2013-02-03 02:15:00,44.6,43.0,30.22,WNW,301,1.0,-999.0,92,-99.99,,,0.00,weatherlink.com 1.10,2013-02-03 10:15:00,
2013-02-03 02:30:00,44.7,43.0,30.21,WNW,301,1.0,-999.0,92,-99.99,,,0.00,weatherlink.com 1.10,2013-02-03 10:30:00,
2013-02-03 02:45:00,45.1,43.0,30.21,WNW,300,2.0,-999.0,92,-99.99,,,0.00,weatherlink.com 1.10,2013-02-03 10:45:00,
2013-02-03 03:00:00,45.8,44.0,30.21,WSW,238,3.0,-999.0,92,-99.99,,,0.00,weatherlink.com 1.10,2013-02-03 11:00:00,
2013-02-03 03:15:00,45.9,44.0,30.21,WSW,238,1.0,-999.0,92,-99.99,,,0.00,weatherlink.com 1.10,2013-02-03 11:15:00,
2013-02-03 03:30:00,45.9,44.0,30.20,WSW,238,3.0,-999.0,92,-99.99,,,0.00,weatherlink.com 1.10,2013-02-03 11:30:00,
2013-02-03 03:45:00,46.0,44.0,30.20,WSW,238,2.0,-999.0,92,-99.99,,,0.00,weatherlink.com 1.10,2013-02-03 11:45:00,
2013-02-03 04:01:00,46.3,44.0,30.20,WSW,238,3.0,-999.0,92,-99.99,,,0.00,weatherlink.com 1.10,2013-02-03 12:01:00,
2013-02-03 04:16:00,46.3,44.0,30.20,WSW,238,1.0,-999.0,92,-99.99,,,0.00,weatherlink.com 1.10,2013-02-03 12:16:00,
2013-02-03 04:30:00,46.2,44.0,30.20,WSW,258,2.0,-999.0,92,-99.99,,,0.00,weatherlink.com 1.10,2013-02-03 12:30:00,
2013-02-03 04:45:00,46.1,44.0,30.19,WSW,257,4.0,-999.0,91,-99.99,,,0.00,weatherlink.com 1.10,2013-02-03 12:45:00,
2013-02-03 05:01:00,46.3,44.0,30.18,West,278,3.0,-999.0,90,-99.99,,,0.00,weatherlink.com 1.10,2013-02-03 13:01:00,
2013-02-03 05:15:00,46.6,43.0,30.18,West,271,5.0,-999.0,88,-99.99,,,0.00,weatherlink.com 1.10,2013-02-03 13:15:00,
2013-02-03 05:31:00,47.0,43.0,30.17,WSW,253,2.0,-999.0,87,-99.99,,,0.00,weatherlink.com 1.10,2013-02-03 13:31:00,
2013-02-03 05:45:00,47.2,44.0,30.17,West,261,3.0,-999.0,87,-99.99,,,0.00,weatherlink.com 1.10,2013-02-03 13:45:00,
2013-02-03 06:00:00,47.4,43.0,30.18,WSW,248,6.0,-999.0,86,-99.99,,,0.00,weatherlink.com 1.10,2013-02-03 14:00:00,
2013-02-03 06:16:00,47.5,44.0,30.18,WSW,248,4.0,-999.0,86,-99.99,,,0.00,weatherlink.com 1.10,2013-02-03 14:16:00,
2013-02-03 06:30:00,47.7,44.0,30.19,West,264,3.0,-999.0,86,-99.99,,,0.00,weatherlink.com 1.10,2013-02-03 14:30:00,
2013-02-03 06:46:00,47.8,44.0,30.20,WSW,253,3.0,-999.0,87,-99.99,,,0.00,weatherlink.com 1.10,2013-02-03 14:46:00,
2013-02-03 07:01:00,47.8,44.0,30.19,West,269,3.0,-999.0,86,-99.99,,,0.00,weatherlink.com 1.10,2013-02-03 15:01:00,
2013-02-03 07:15:00,47.9,44.0,30.20,WNW,291,3.0,-999.0,87,-99.99,,,0.00,weatherlink.com 1.10,2013-02-03 15:15:00,
2013-02-03 07:31:00,47.9,44.0,30.20,West,267,1.0,-999.0,87,-99.99,,,0.00,weatherlink.com 1.10,2013-02-03 15:31:00,
2013-02-03 07:46:00,47.9,44.0,30.21,WSW,254,3.0,-999.0,87,-99.99,,,0.00,weatherlink.com 1.10,2013-02-03 15:46:00,
2013-02-03 08:01:00,47.9,44.0,30.21,West,259,3.0,-999.0,86,-99.99,,,0.00,weatherlink.com 1.10,2013-02-03 16:01:00,
2013-02-03 08:16:00,48.3,44.0,30.21,SW,231,6.0,-999.0,86,-99.99,,,0.00,weatherlink.com 1.10,2013-02-03 16:16:00,
2013-02-03 08:31:00,48.6,44.0,30.21,WSW,254,4.0,-999.0,85,-99.99,,,0.00,weatherlink.com 1.10,2013-02-03 16:31:00,
2013-02-03 08:46:00,49.1,45.0,30.21,WSW,242,5.0,-999.0,84,-99.99,,,0.00,weatherlink.com 1.10,2013-02-03 16:46:00,
2013-02-03 09:01:00,49.6,45.0,30.21,WNW,301,4.0,-999.0,84,-99.99,,,0.00,weatherlink.com 1.10,2013-02-03 17:01:00,
2013-02-03 09:16:00,49.9,45.0,30.20,WSW,249,3.0,-999.0,83,-99.99,,,0.00,weatherlink.com 1.10,2013-02-03 17:16:00,
2013-02-03 09:31:00,50.9,46.0,30.19,WNW,301,1.0,-999.0,82,-99.99,,,0.00,weatherlink.com 1.10,2013-02-03 17:31:00,
2013-02-03 09:46:00,51.6,46.0,30.19,WSW,246,7.0,-999.0,80,-99.99,,,0.00,weatherlink.com 1.10,2013-02-03 17:46:00,
2013-02-03 10:01:00,53.2,46.0,30.19,West,261,5.0,-999.0,77,-99.99,,,0.00,weatherlink.com 1.10,2013-02-03 18:01:00,
2013-02-03 10:16:00,51.9,46.0,30.19,SSW,213,9.0,-999.0,80,-99.99,,,0.00,weatherlink.com 1.10,2013-02-03 18:16:00,
2013-02-03 10:31:00,51.1,45.0,30.19,SSW,194,9.0,-999.0,81,-99.99,,,0.00,weatherlink.com 1.10,2013-02-03 18:31:00,
2013-02-03 10:46:00,51.4,46.0,30.20,WSW,240,6.0,-999.0,81,-99.99,,,0.00,weatherlink.com 1.10,2013-02-03 18:46:00,
2013-02-03 11:01:00,52.0,46.0,30.20,SW,223,11.0,-999.0,80,-99.99,,,0.00,weatherlink.com 1.10,2013-02-03 19:01:00,
2013-02-03 11:16:00,52.4,46.0,30.20,SSW,212,12.0,-999.0,79,-99.99,,,0.00,weatherlink.com 1.10,2013-02-03 19:16:00,
2013-02-03 11:31:00,52.0,46.0,30.21,SW,222,12.0,-999.0,80,-99.99,,,0.00,weatherlink.com 1.10,2013-02-03 19:31:00,
2013-02-03 11:46:00,51.7,46.0,30.21,SW,227,9.0,-999.0,80,-99.99,,,0.00,weatherlink.com 1.10,2013-02-03 19:46:00,
2013-02-03 12:01:00,52.2,47.0,30.21,SW,217,15.0,-999.0,81,-99.99,,,0.00,weatherlink.com 1.10,2013-02-03 20:01:00,
2013-02-03 12:16:00,52.3,46.0,30.20,SW,227,18.0,-999.0,79,-99.99,,,0.00,weatherlink.com 1.10,2013-02-03 20:16:00,
2013-02-03 12:31:00,51.8,46.0,30.20,SW,227,18.0,-999.0,80,-99.99,,,0.00,weatherlink.com 1.10,2013-02-03 20:31:00,
2013-02-03 12:46:00,51.7,46.0,30.19,WSW,247,13.0,-999.0,80,-99.99,,,0.00,weatherlink.com 1.10,2013-02-03 20:46:00,
2013-02-03 13:01:00,52.2,46.0,30.18,West,267,9.0,-999.0,78,-99.99,,,0.00,weatherlink.com 1.10,2013-02-03 21:01:00,
2013-02-03 13:16:00,52.5,46.0,30.17,SW,232,15.0,-999.0,79,-99.99,,,0.00,weatherlink.com 1.10,2013-02-03 21:16:00,
2013-02-03 13:31:00,52.4,46.0,30.17,SW,227,17.0,-999.0,79,-99.99,,,0.00,weatherlink.com 1.10,2013-02-03 21:31:00,
2013-02-03 13:46:00,51.7,46.0,30.16,SW,226,9.0,-999.0,80,-99.99,,,0.00,weatherlink.com 1.10,2013-02-03 21:46:00,
2013-02-03 14:01:00,52.3,46.0,30.16,SW,228,11.0,-999.0,79,-99.99,,,0.00,weatherlink.com 1.10,2013-02-03 22:01:00,
2013-02-03 14:16:00,51.4,45.0,30.16,SW,231,14.0,-999.0,79,-99.99,,,0.00,weatherlink.com 1.10,2013-02-03 22:16:00,
2013-02-03 14:31:00,51.2,46.0,30.15,SW,221,7.0,-999.0,81,-99.99,,,0.00,weatherlink.com 1.10,2013-02-03 22:31:00,
2013-02-03 14:46:00,51.4,45.0,30.15,SSW,196,13.0,-999.0,80,-99.99,,,0.00,weatherlink.com 1.10,2013-02-03 22:46:00,
2013-02-03 15:01:00,51.2,46.0,30.15,SSW,209,15.0,-999.0,81,-99.99,,,0.00,weatherlink.com 1.10,2013-02-03 23:01:00,
2013-02-03 15:16:00,50.9,45.0,30.15,SW,221,14.0,-999.0,81,-99.99,,,0.00,weatherlink.com 1.10,2013-02-03 23:16:00,
2013-02-03 15:31:00,51.0,45.0,30.16,SW,227,14.0,-999.0,80,-99.99,,,0.00,weatherlink.com 1.10,2013-02-03 23:31:00,
2013-02-03 15:46:00,50.6,45.0,30.15,SSW,205,14.0,-999.0,81,-99.99,,,0.00,weatherlink.com 1.10,2013-02-03 23:46:00,
2013-02-03 16:01:00,50.6,45.0,30.15,SW,216,3.0,-999.0,81,-99.99,,,0.00,weatherlink.com 1.10,2013-02-04 00:01:00,
2013-02-03 16:16:00,51.4,45.0,30.15,SSW,208,9.0,-999.0,80,-99.99,,,0.00,weatherlink.com 1.10,2013-02-04 00:16:00,
2013-02-03 16:31:00,51.4,45.0,30.14,WSW,255,4.0,-999.0,80,-99.99,,,0.00,weatherlink.com 1.10,2013-02-04 00:31:00,
2013-02-03 16:46:00,50.7,45.0,30.13,SSW,210,10.0,-999.0,81,-99.99,,,0.00,weatherlink.com 1.10,2013-02-04 00:46:00,
2013-02-03 17:01:00,49.9,45.0,30.14,WSW,246,10.0,-999.0,82,-99.99,,,0.00,weatherlink.com 1.10,2013-02-04 01:01:00,
2013-02-03 17:16:00,49.0,44.0,30.14,SW,221,6.0,-999.0,83,-99.99,,,0.00,weatherlink.com 1.10,2013-02-04 01:16:00,
2013-02-03 17:31:00,48.1,44.0,30.14,SW,214,10.0,-999.0,85,-99.99,,,0.00,weatherlink.com 1.10,2013-02-04 01:31:00,
2013-02-03 17:46:00,47.3,44.0,30.14,WNW,284,4.0,-999.0,87,-99.99,,,0.00,weatherlink.com 1.10,2013-02-04 01:46:00,
2013-02-03 18:01:00,47.0,44.0,30.14,SW,234,10.0,-999.0,88,-99.99,,,0.00,weatherlink.com 1.10,2013-02-04 02:01:00,
2013-02-03 18:16:00,47.0,44.0,30.14,WSW,246,4.0,-999.0,88,-99.99,,,0.00,weatherlink.com 1.10,2013-02-04 02:16:00,
2013-02-03 18:31:00,47.0,44.0,30.15,WNW,292,6.0,-999.0,88,-99.99,,,0.00,weatherlink.com 1.10,2013-02-04 02:31:00,
2013-02-03 18:46:00,46.9,44.0,30.14,WNW,292,3.0,-999.0,88,-99.99,,,0.00,weatherlink.com 1.10,2013-02-04 02:46:00,
2013-02-03 19:01:00,46.9,44.0,30.14,West,261,6.0,-999.0,88,-99.99,,,0.00,weatherlink.com 1.10,2013-02-04 03:01:00,
2013-02-03 19:16:00,46.9,44.0,30.14,SW,234,7.0,-999.0,88,-99.99,,,0.00,weatherlink.com 1.10,2013-02-04 03:16:00,
2013-02-03 19:31:00,46.8,43.0,30.14,WSW,257,5.0,-999.0,87,-99.99,,,0.00,weatherlink.com 1.10,2013-02-04 03:31:00,
2013-02-03 19:46:00,46.5,43.0,30.13,West,271,1.0,-999.0,87,-99.99,,,0.00,weatherlink.com 1.10,2013-02-04 03:46:00,
2013-02-03 20:01:00,45.9,43.0,30.13,SW,230,9.0,-999.0,88,-99.99,,,0.00,weatherlink.com 1.10,2013-02-04 04:01:00,
2013-02-03 20:16:00,45.6,43.0,30.13,WSW,249,4.0,-999.0,89,-99.99,,,0.00,weatherlink.com 1.10,2013-02-04 04:16:00,
2013-02-03 20:31:00,44.8,42.0,30.14,West,269,3.0,-999.0,89,-99.99,,,0.00,weatherlink.com 1.10,2013-02-04 04:31:00,
2013-02-03 20:46:00,43.8,41.0,30.14,West,264,2.0,-999.0,89,-99.99,,,0.00,weatherlink.com 1.10,2013-02-04 04:46:00,
2013-02-03 21:01:00,43.7,41.0,30.14,West,266,4.0,-999.0,91,-99.99,,,0.00,weatherlink.com 1.10,2013-02-04 05:01:00,
2013-02-03 21:16:00,43.4,41.0,30.14,WNW,290,0.0,-999.0,90,-99.99,,,0.00,weatherlink.com 1.10,2013-02-04 05:16:00,
2013-02-03 21:31:00,42.6,40.0,30.14,West,264,1.0,-999.0,90,-99.99,,,0.00,weatherlink.com 1.10,2013-02-04 05:31:00,
2013-02-03 21:46:00,42.2,40.0,30.14,West,275,3.0,-999.0,91,-99.99,,,0.00,weatherlink.com 1.10,2013-02-04 05:46:00,
2013-02-03 22:01:00,42.0,40.0,30.13,WNW,300,2.0,-999.0,91,-99.99,,,0.00,weatherlink.com 1.10,2013-02-04 06:01:00,
2013-02-03 22:16:00,41.3,39.0,30.13,WNW,300,0.0,-999.0,91,-99.99,,,0.00,weatherlink.com 1.10,2013-02-04 06:16:00,
2013-02-03 22:31:00,41.3,39.0,30.13,NW,310,3.0,-999.0,92,-99.99,,,0.00,weatherlink.com 1.10,2013-02-04 06:31:00,
2013-02-03 22:46:00,42.2,40.0,30.12,WSW,245,3.0,-999.0,93,-99.99,,,0.00,weatherlink.com 1.10,2013-02-04 06:46:00,
2013-02-03 23:01:00,42.9,41.0,30.13,WSW,257,3.0,-999.0,93,-99.99,,,0.00,weatherlink.com 1.10,2013-02-04 07:01:00,
2013-02-03 23:16:00,43.8,42.0,30.13,West,272,4.0,-999.0,94,-99.99,,,0.00,weatherlink.com 1.10,2013-02-04 07:16:00,
2013-02-03 23:31:00,44.7,43.0,30.13,West,275,3.0,-999.0,94,-99.99,,,0.00,weatherlink.com 1.10,2013-02-04 07:31:00,
2013-02-03 23:46:00,45.2,44.0,30.12,WNW,296,8.0,-999.0,94,-99.99,,,0.00,weatherlink.com 1.10,2013-02-04 07:46:00,